Weather in Nizhny Novgorod

Russia / Nizhny Novgorod Oblast'     56°19′36″N   44°00′21″E
temp.,
°C
wind,
m/s
gust,
m/s
humid.,
%
clouds,
%
prec.,
mm/h
press.,
hPa
HPBL,
m
10 may, mon
mon1000:00+7nw5994100 0.0 1014405
03:00+7nnw4994100 0.1 1016440
06:00+7nnw4995100 0.9 1018450
09:00+7nnw4994100 1.3 1021481
12:00+7n4994100 1.3 1023415
15:00+8n5892100 1.6 1025448
18:00+9nne478998 0.0 1026539
21:00+8nne499395 0.0 1027415
11 may, tue
tue1100:00+6nne3109626 0.0 1027305
03:00+6ne3109614 0.0 1027285
06:00+7nne4119213 0.0 1028309
09:00+13ne57745 0.0 1028488
12:00+19ne46610 0.0 1027915
15:00+21ene46540 0.0 10271243
18:00+20ne47655 0.0 1027532
21:00+15ene388555 0.2 1028190
12 may, wed
wed1200:00+13ene379226 0.2 1028160
03:00+12ene269514 0.2 1028131
06:00+13ene3992100 0.0 1027243
09:00+18e4869100 0.0 1027490
12:00+23ese585099 0.0 10261670
15:00+23se6104524 0.0 10252474
18:00+21se495763 0.0 10251203
21:00+17se4115923 0.0 1025444
13 may, thu
thu1300:00+15ese396594 0.0 1026224
03:00+15ese276692 0.0 1026193
06:00+15ese31068100 0.0 1025269
09:00+16e4107092 0.0 1025371
12:00+23ese694310 0.0 10231278
15:00+22se51052100 0.0 10231284
18:00+16ese1286100 1.3 102292
21:00+16ese298735 1.3 1021241
14 may, fri
fri1400:00+15se2789100 0.1 1021195
03:00+14s229338 0.2 102132
06:00+15se128881 0.0 102289
09:00+20se357198 0.0 1021510
12:00+24sse46505 0.0 10201105
15:00+25sse5647100 0.0 10191397
18:00+23sse3763100 0.0 1018724
21:00+18sse25805 0.0 1017107